星链-5374 (STARLINK-5374 )

导读

STARLINK-5374是美国太空探索技术公司(SpaceX)星链(Starlink)星座的一员,于2023年3月29日发射入轨。星链是全球最大低轨卫星互联网星座项目,该卫星主要用于补充星链网络容量,为全球偏远地区、移动场景等提供高速低时延的宽带互联网接入,同时也可支撑军事通信等拓展应用,进一步完善了星链星座的全球覆盖与服务能力。

Basic Information
目录编号:
56144
目录名称:
STARLINK-5374
国际标识:
2023-046BE
轨道中心:
EARTH
卫星名称:
星链-5374
卫星全名:
星链-5374 (STARLINK-5374 )
卫星状态:
在轨 (已飞行1255 天)
发射日期:
2023-03-29 UTC
国别 :
美国 (US)
星等 :
--
Orbit Information
数据来源 国际轨道数据 AOE轨道数据
星历时间 2026-09-04T14:33:19+0800
12小时前
查看轨道信息
2026-09-03T23:00:00+0800
1天前
查看轨道信息
半长轴 6861.195km 6861.191km
偏心率 0.0001352 0.0000263
轨道倾角 43.001° 42.999°
近地点辐角 265.484° 353.899°
升交点赤经 218.311° 221.973°
平近点角 94.586° 37.718°
近地点 482.13km 482.873km
远地点 483.986km 483.235km
周期 94.267分钟 94.267分钟
每日圈数 15.275773 15.275786
Detailed Information
固有亮度:
5
最大亮度:
2.5
卫星平台:
Starlink v1.5
覆盖范围:
全球
运营商:
太空探索技术公司
运营商所在国:
美国
制造商(研发单位):
太空探索技术公司
制造商所在国:
美国
使用方式:
暂无
Satellite Introduction
星链(Starlink)计划是由太空探索技术公司(SpaceX)提出的一个巨型低轨卫星互联网星座项目,计划在2019年至2024年间在太空搭建由约1.2万颗卫星组成的“星链”网络,其中1584颗将部署在地球上空550千米处的近地轨道,并从2020年开始工作。该卫星仍在工作。
2D Orbit Map
3D Orbit Map
Orbit Altitude Analysis Chart
Orbit Inclination Analysis Chart
Orbit Comprehensive Analysis Chart
View Comprehensive Chart
Conjunction Data List
Event ID Objects TCA Miss Dist (km) Collision Risk Probability Collision Risk Index (CRI) Action
CDM_260907-051405-614406-649321
2026-09-07T
05:14:35+0000
0.512 km
远距离
1.555078E-4 高风险 0.79
CDM_260905-192305-614406-402821
2026-09-05T
19:23:20+0000
1.492 km
极远距离
6.147464E-6 低风险 0.51
CDM_260907-034005-614406-649321
2026-09-07T
03:40:26+0000
2.160 km
极远距离
1.883782E-6 低风险 0.41
CDM_260901-043605-614406-074824
OBJECT D (60748)
2026-09-01T
04:36:24+0000
2.811 km
极远距离
1.407947E-6 低风险 0.38